Weather History for KRXE - January, 2014

Change the Weather History Date:

Monday, January 20, 2014

  Actual Average Record
Temperature  
Mean Temperature 21 °F 20 °F  
Max Temperature 34 °F 29 °F 42 °F (2012)
Min Temperature 8 °F 11 °F -5 °F (2013)
Degree Days  
Heating Degree Days 44 45  
Month to date heating degree days 867 900  
Since 1 July heating degree days 4206 4282  
Cooling Degree Days 0 0  
Month to date cooling degree days 0 0  
Year to date cooling degree days 0 0  
Moisture  
Dew Point 10 °F    
Average Humidity 71    
Maximum Humidity 92    
Minimum Humidity 49    
Precipitation  
Precipitation 0.00 in 0.02 in 0.19 in (2008)
Month to date precipitation 0.46 0.54  
Year to date precipitation 0.46 0.54  
Sea Level Pressure  
Sea Level Pressure 30.57 in    
Wind  
Wind Speed 3 mph (NE)    
Max Wind Speed 8 mph    
Max Gust Speed 10 mph    
Visibility 9 miles    
Events      
T = Trace of Precipitation, MM = Missing Value Source: NWS Daily Summary

Daily Weather History Graph

Daily Weather History Graph

Search for Another Location

Airport or City:

Trip Planner

Search our weather history database for the weather conditions in past years. The results will help you decide how hot, cold, wet, or windy it might be!

Date:

Astronomy

Jan. 20, 2014 Rise Set
Actual Time 7:55 AM MST 5:21 PM MST
Civil Twilight 7:23 AM MST 5:53 PM MST
Nautical Twilight 6:48 AM MST 6:28 PM MST
Astronomical Twilight 6:14 AM MST 7:03 PM MST
Moon 10:11 PM MST (1/20) 9:46 AM MST (1/20)
Length of Visible Light 10h 30m
Length of Day
9h 26m
Waning Gibbous, 82% of the Moon is Illuminated
Jan 20
Waning Gibbous
Jan 23
Last Quarter
Jan 30
New
Feb 6
First Quarter
Feb 14
Full

Hourly Weather History & Observations

Time (MST) Temp. Windchill Dew Point Humidity Pressure Visibility Wind Dir Wind Speed Gust Speed Precip Events Conditions
12:53 AM 19.0 °F - 12.9 °F 77% 30.39 in 10.0 mi Calm Calm - N/A   Clear
1:53 AM 19.0 °F 13.9 °F 12.9 °F 77% 30.39 in 10.0 mi East 3.5 mph - N/A   Clear
2:53 AM 17.1 °F 10.0 °F 12.0 °F 81% 30.42 in 10.0 mi NE 4.6 mph - N/A   Clear
3:53 AM 16.0 °F - 12.0 °F 84% 30.45 in 7.0 mi Calm Calm - N/A   Clear
4:53 AM 12.9 °F 5.2 °F 9.0 °F 84% 30.49 in 8.0 mi NNE 4.6 mph - N/A   Clear
5:53 AM 10.9 °F 4.7 °F 9.0 °F 92% 30.52 in 10.0 mi NNE 3.5 mph - N/A   Clear
6:53 AM 10.0 °F -0.9 °F 7.0 °F 87% 30.55 in 8.0 mi NE 6.9 mph - N/A   Clear
7:10 AM 10.0 °F -0.9 °F 6.1 °F 84% 30.38 in 2.0 mi ENE 6.9 mph - N/A   Clear
7:53 AM 9.0 °F - 6.1 °F 88% 30.61 in 2.0 mi Calm Calm - N/A   Clear
8:22 AM 9.0 °F -0.9 °F 5.0 °F 84% 30.41 in 5.0 mi ENE 5.8 mph - N/A   Clear
8:53 AM 12.0 °F 1.5 °F 6.1 °F 77% 30.61 in 9.0 mi ENE 6.9 mph - N/A   Clear
9:53 AM 16.0 °F 8.8 °F 7.0 °F 68% 30.63 in 10.0 mi NE 4.6 mph - N/A   Clear
10:53 AM 19.9 °F - 9.0 °F 62% 30.64 in 10.0 mi Calm Calm - N/A   Clear
11:53 AM 24.1 °F - 12.0 °F 60% 30.63 in 10.0 mi Calm Calm - N/A   Clear
12:53 PM 28.9 °F - 12.9 °F 51% 30.58 in 10.0 mi Calm Calm - N/A   Clear
1:53 PM 27.0 °F 21.6 °F 16.0 °F 63% 30.59 in 10.0 mi SW 4.6 mph - N/A   Clear
2:53 PM 32.0 °F - 16.0 °F 52% 30.57 in 10.0 mi Calm Calm - N/A   Clear
3:53 PM 33.1 °F - 17.1 °F 52% 30.57 in 10.0 mi Calm Calm - N/A   Clear
4:53 PM 30.9 °F 27.5 °F 19.0 °F 61% 30.60 in 10.0 mi NNE 3.5 mph - N/A   Clear
5:53 PM 25.0 °F 20.7 °F 17.1 °F 72% 30.64 in 10.0 mi ENE 3.5 mph - N/A   Clear
6:53 PM 18.0 °F 9.8 °F 12.0 °F 78% 30.68 in 10.0 mi ENE 5.8 mph - N/A   Clear
7:53 PM 15.1 °F 7.7 °F 10.0 °F 80% 30.69 in 10.0 mi NE 4.6 mph - N/A   Clear
8:53 PM 12.9 °F 6.9 °F 9.0 °F 84% 30.70 in 10.0 mi ESE 3.5 mph - N/A   Clear
9:53 PM 10.0 °F 0.4 °F 6.1 °F 84% 30.70 in 10.0 mi NE 5.8 mph - N/A   Clear
10:53 PM 10.0 °F 3.6 °F 6.1 °F 84% 30.70 in 10.0 mi East 3.5 mph - N/A   Clear
11:53 PM 8.1 °F 1.4 °F 3.9 °F 83% 30.70 in 10.0 mi NNE 3.5 mph - N/A   Clear